Weather History for Dallas Love, TX

Change the Weather History Date:

Tuesday, April 23, 2013

  Actual Average Record
Temperature  
Mean Temperature 56 °F -  
Max Temperature 69 °F 76 °F 89 °F (2011)
Min Temperature 42 °F 56 °F 42 °F (2013)
Degree Days  
Heating Degree Days 10    
Growing Degree Days 6 (Base 50)    
Moisture  
Dew Point 49 °F    
Average Humidity 78    
Maximum Humidity 88    
Minimum Humidity 63    
Precipitation  
Precipitation 0.00 in - - ()
Sea Level Pressure  
Sea Level Pressure 29.98 in    
Wind  
Wind Speed 16 mph (WNW)    
Max Wind Speed 22 mph    
Max Gust Speed 32 mph    
Visibility 9 miles    
Events Rain    
Averages and records for this station are not official NWS values.
T = Trace of Precipitation, MM = Missing Value Source: NWS Daily Summary

Daily Weather History Graph

Daily Weather History Graph

Search for Another Location

Airport:

Trip Planner

Search our weather history database for the weather conditions in past years. The results will help you decide how hot, cold, wet, or windy it might be!

Date:

Astronomy

Apr. 23, 2013 Rise Set
Actual Time 6:48 AM CDT 8:03 PM CDT
Civil Twilight 6:22 AM CDT 8:29 PM CDT
Nautical Twilight 5:51 AM CDT 9:00 PM CDT
Astronomical Twilight 5:19 AM CDT 9:32 PM CDT
Moon 6:05 PM CDT (4/23) 5:09 AM CDT (4/23)
Length of Visible Light 14h 07m
Length of Day
13h 15m
Waxing Gibbous, 94% of the Moon is Illuminated
Apr 23
Waxing Gibbous
Apr 25
Full
May 2
Last Quarter
May 9
New
May 17
First Quarter

Hourly Weather History & Observations

Time (CDT) Temp. Windchill Dew Point Humidity Pressure Visibility Wind Dir Wind Speed Gust Speed Precip Events Conditions
12:53 AM 69.1 °F - 55.9 °F 63% 29.84 in 10.0 mi SSE 20.7 mph 27.6 mph N/A   Clear
1:53 AM 68.0 °F - 57.0 °F 68% 29.83 in 10.0 mi South 21.9 mph 32.2 mph N/A   Clear
2:53 AM 66.0 °F - 57.9 °F 75% 29.81 in 10.0 mi South 21.9 mph 26.5 mph N/A   Partly Cloudy
2:58 AM 66.2 °F - 57.2 °F 73% 29.82 in 10.0 mi South 21.9 mph 28.8 mph N/A   Mostly Cloudy
3:53 AM 66.9 °F - 59.0 °F 76% 29.80 in 10.0 mi South 18.4 mph - N/A   Mostly Cloudy
4:53 AM 66.0 °F - 59.0 °F 78% 29.80 in 10.0 mi South 16.1 mph - N/A   Mostly Cloudy
5:53 AM 66.9 °F - 59.0 °F 76% 29.87 in 10.0 mi South 5.8 mph - N/A   Overcast
6:53 AM 66.0 °F - 59.0 °F 78% 29.88 in 8.0 mi SSW 10.4 mph - N/A   Overcast
7:38 AM 66.2 °F - 60.8 °F 83% 29.91 in 9.0 mi SSE 9.2 mph - N/A   Overcast
7:53 AM 66.0 °F - 60.1 °F 81% 29.89 in 9.0 mi SSE 12.7 mph - N/A   Overcast
8:00 AM 66.2 °F - 60.8 °F 83% 29.91 in 9.0 mi SSE 11.5 mph - N/A   Overcast
8:46 AM 66.2 °F - 60.8 °F 83% 29.92 in 10.0 mi SSE 11.5 mph - N/A   Overcast
8:53 AM 66.0 °F - 60.1 °F 81% 29.91 in 10.0 mi South 11.5 mph - N/A   Overcast
9:26 AM 66.2 °F - 60.8 °F 83% 29.94 in 9.0 mi South 9.2 mph - 0.00 in Rain Light Rain
9:53 AM 62.1 °F - 57.0 °F 84% 29.95 in 7.0 mi WNW 16.1 mph 27.6 mph 0.00 in Rain Light Rain
10:10 AM 55.4 °F - 51.8 °F 88% 29.97 in 10.0 mi WNW 12.7 mph 21.9 mph 0.00 in Rain Light Rain
10:25 AM 55.4 °F - 51.8 °F 88% 29.99 in 9.0 mi WNW 10.4 mph 19.6 mph 0.00 in   Overcast
10:53 AM 53.1 °F - 48.0 °F 83% 30.00 in 10.0 mi NW 13.8 mph - 0.00 in   Overcast
11:21 AM 51.8 °F - 46.4 °F 82% 30.03 in 10.0 mi NW 12.7 mph 25.3 mph N/A   Overcast
11:53 AM 50.0 °F - 45.0 °F 83% 30.03 in 4.0 mi NW 16.1 mph 21.9 mph 0.00 in   Light Drizzle
12:53 PM 48.9 °F - 43.0 °F 80% 30.04 in 6.0 mi NW 16.1 mph - 0.00 in   Haze
1:53 PM 50.0 °F - 42.1 °F 74% 30.03 in 6.0 mi NNW 17.3 mph 21.9 mph N/A   Haze
2:53 PM 48.9 °F - 42.1 °F 77% 30.03 in 10.0 mi NNW 13.8 mph - N/A   Overcast
3:53 PM 50.0 °F - 41.0 °F 71% 30.03 in 10.0 mi NNW 13.8 mph 21.9 mph N/A   Overcast
4:14 PM 48.2 °F - 41.0 °F 76% 30.03 in 10.0 mi NNW 17.3 mph - N/A   Overcast
4:53 PM 48.0 °F - 39.9 °F 74% 30.04 in 10.0 mi NW 16.1 mph 24.2 mph N/A   Overcast
5:53 PM 48.0 °F - 39.9 °F 74% 30.04 in 10.0 mi NNW 12.7 mph 21.9 mph N/A   Overcast
6:53 PM 48.0 °F - 39.9 °F 74% 30.06 in 10.0 mi NNW 12.7 mph - N/A   Overcast
7:53 PM 48.0 °F - 37.9 °F 68% 30.07 in 10.0 mi North 16.1 mph 23.0 mph N/A   Overcast
8:53 PM 46.9 °F - 37.9 °F 71% 30.09 in 10.0 mi North 13.8 mph - N/A   Overcast
9:53 PM 46.0 °F 39.0 °F 37.0 °F 71% 30.13 in 10.0 mi North 17.3 mph 26.5 mph N/A   Overcast
10:53 PM 45.0 °F 38.9 °F 37.9 °F 76% 30.17 in 10.0 mi North 12.7 mph 21.9 mph 0.00 in   Overcast
11:51 PM 42.8 °F 35.1 °F 37.4 °F 81% 30.19 in 10.0 mi NNW 16.1 mph 25.3 mph 0.00 in Rain Light Rain
11:53 PM 43.0 °F 35.1 °F 37.9 °F 82% 30.19 in 10.0 mi NNW 17.3 mph 25.3 mph 0.00 in Rain Light Rain